Showing default

UNISAT 6, 40012

Orbit data source: Space-Track

UNISAT 6, 40012 is a payload satellite owned by GAUSS SrI (IT) in SSO that was launched on Thu, 19 Jun 2014 UTC via a DNEPR launch vehicle from the Orenburg, Russia (OREN). Payload-class satellites include a variety of spacecraft equipped with specific instruments for various scientific and technological missions. These include communications satellites like Starlink; space stations such as the ISS; scientific satellites like the Hubble; Earth observation satellites from companies like Planet Labs, Umbra, and HawkEye 360; GPS; miniature CubeSats for education and research; and military/defense satellites.

Loading next visibility...
Identifier
40012, 2014-033C
Orbit
SSO
Country
Flag of ITIT
Related business
Manufacturer
GAUSS SrI
Mission
Operational Amateur Technology
Bus & Motor
UNISAT, Unknown motor
Mass
26 kg wet, ~19 kg dry
Launch date (UTC)
2014-06-19 (11 years ago)
Launch vehicle
DNEPR
Launch site
Orenburg, Russia (OREN)
Object type
Payload
Rocket body
Debris
Shape & HBR
Box + 4 Pan, 0.5 m
Radar Cross Section
0.238 m², Medium (>0.1 m² and < 1m²)

Expand to show TLE details & history
Last TLE update: 13 hours ago

TLE from 13 hours ago
0 UNISAT 6
1 40012U 14033C   25258.21872965  .00004200  00000-0  48014-3 0  9996
2 40012  97.7547  51.7912 0046086 253.5472 106.0676 14.85789564605290
Epoch: 2025-09-15T05:14Z
TLE epoch observation values (Epoch: 2025-09-15T05:14:58.241Z)
Latitude
-0.00004°
Longitude
-21.378°
Altitude
623.196 km
Speed
7.542 km/s
True Right ascension
03h 27m 09s
True Declination
0° 00' 00"
Sunlit
Object was in full shadow at epoch
Visualization orbit readout
Latitude
Unknown
Longitude
Unknown
Altitude
Unknown
Speed
Unknown
Apparent Right ascension
Unknown
Apparent Declination
Unknown
Sunlit
N/A
Visualization observer readout
Local Sidereal Time
10:59:21
Azimuth
Unknown
Elevation
Unknown
Doppler factor
Unknown
Orbital elements
Apogee altitude
640.332 km
Perigee altitude
575.938 km
Semi-major axis
6,986.272 km
Eccentricity
0.00461
Inclination
97.7547°
RAAN
51.7912°
Arg. of periapsis
253.5472°
True anomaly
106.57426°
Mean anomaly
106.0676°
Eccentric anomaly
106.32101°
Mean motion
3.71685 °/min
Orbital period
96.86 mins
BSTAR
0.00048014
Loading maneuver chart data...
Computing Atmospheric mass density...
Loading historical data...
Loading historical data...
Loading historical data...
Loading historical data...
Loading historical data...
Loading historical data...
Loading historical data...

Documentation

Showing up to 5 results
|